TimeCDT,TemperatureF,Dew PointF,Humidity,Sea Level PressureIn,VisibilityMPH,Wind Direction,Wind SpeedMPH,Gust SpeedMPH,PrecipitationIn,Events,Conditions,WindDirDegrees,DateUTC
12:15 AM,80.6,70.5,71,30.30,10.0,Calm,Calm,-,N/A,,Clear,0,2013-07-17 05:15:00
12:35 AM,77.2,70.9,81,30.30,10.0,Calm,Calm,-,N/A,,Clear,0,2013-07-17 05:35:00
1:15 AM,79.2,70.3,74,30.30,10.0,SW,3.5,-,N/A,,Clear,230,2013-07-17 06:15:00
1:35 AM,79.7,70.2,73,30.30,10.0,SW,3.5,-,N/A,,Clear,220,2013-07-17 06:35:00
1:55 AM,79.2,70.0,73,30.30,10.0,SSW,3.5,-,N/A,,Clear,210,2013-07-17 06:55:00
2:15 AM,78.8,70.0,74,30.30,10.0,Calm,Calm,-,N/A,,Clear,0,2013-07-17 07:15:00
2:35 AM,77.9,70.2,77,30.30,10.0,SSW,3.5,-,N/A,,Clear,210,2013-07-17 07:35:00
2:55 AM,77.2,70.5,80,30.30,10.0,Calm,Calm,-,N/A,,Clear,0,2013-07-17 07:55:00
3:15 AM,76.6,70.3,81,30.30,10.0,Calm,Calm,-,N/A,,Clear,0,2013-07-17 08:15:00
3:35 AM,76.3,70.7,83,30.30,10.0,South,3.5,-,N/A,,Clear,190,2013-07-17 08:35:00
3:55 AM,76.5,70.2,81,30.31,10.0,Calm,Calm,-,N/A,,Clear,0,2013-07-17 08:55:00
4:15 AM,76.6,70.2,80,30.31,10.0,SSW,3.5,-,N/A,,Clear,200,2013-07-17 09:15:00
4:35 AM,76.3,70.2,81,30.31,10.0,Calm,Calm,-,N/A,,Clear,0,2013-07-17 09:35:00
4:45 AM,75.2,69.8,83,30.31,10.0,Variable,6.9,-,N/A,,Clear,0,2013-07-17 09:45:00
5:45 AM,73.4,69.8,88,30.32,10.0,Calm,Calm,-,N/A,,Clear,0,2013-07-17 10:45:00
6:45 AM,78.8,71.6,78,30.33,10.0,Calm,Calm,-,N/A,,Clear,0,2013-07-17 11:45:00
7:45 AM,82.4,71.6,70,30.34,10.0,WSW,6.9,-,N/A,,Partly Cloudy,250,2013-07-17 12:45:00
8:45 AM,86.0,69.8,58,30.34,10.0,WSW,6.9,-,N/A,,Scattered Clouds,250,2013-07-17 13:45:00
9:45 AM,87.8,69.8,55,30.33,10.0,West,9.2,-,N/A,,Scattered Clouds,280,2013-07-17 14:45:00
10:45 AM,89.6,68.0,49,30.32,10.0,West,5.8,-,N/A,,Mostly Cloudy,270,2013-07-17 15:45:00
11:45 AM,89.6,69.8,52,30.32,10.0,Calm,Calm,-,N/A,,Mostly Cloudy,0,2013-07-17 16:45:00
12:45 PM,91.4,66.2,43,30.30,10.0,West,5.8,-,N/A,,Mostly Cloudy,270,2013-07-17 17:45:00
1:45 PM,89.6,68.0,49,30.28,10.0,Variable,3.5,-,N/A,,Mostly Cloudy,0,2013-07-17 18:45:00
2:45 PM,89.6,71.6,55,30.25,10.0,North,3.5,-,N/A,,Mostly Cloudy,360,2013-07-17 19:45:00
3:45 PM,89.6,69.8,52,30.24,10.0,Calm,Calm,-,N/A,,Mostly Cloudy,0,2013-07-17 20:45:00
4:45 PM,91.4,68.0,46,30.22,10.0,Calm,Calm,-,N/A,,Mostly Cloudy,0,2013-07-17 21:45:00
5:45 PM,91.4,68.0,46,30.21,10.0,WSW,10.4,-,N/A,,Mostly Cloudy,240,2013-07-17 22:45:00
6:45 PM,91.4,68.0,46,30.19,10.0,West,8.1,-,N/A,,Mostly Cloudy,270,2013-07-17 23:45:00
7:45 PM,89.6,68.0,49,30.19,10.0,WSW,9.2,-,N/A,,Scattered Clouds,250,2013-07-18 00:45:00
8:45 PM,87.8,69.8,55,30.19,15.0,WSW,5.8,-,N/A,,Scattered Clouds,250,2013-07-18 01:45:00
9:15 PM,85.6,70.5,60,30.19,10.0,Calm,Calm,-,N/A,,Clear,0,2013-07-18 02:15:00
9:35 PM,85.3,70.3,61,30.20,10.0,SSW,3.5,-,N/A,,Clear,200,2013-07-18 02:35:00
9:45 PM,84.2,71.6,66,30.20,10.0,SW,5.8,-,N/A,,Clear,230,2013-07-18 02:45:00
9:55 PM,84.6,70.7,63,30.20,10.0,SSW,3.5,-,N/A,,Clear,210,2013-07-18 02:55:00
10:15 PM,85.3,70.7,62,30.20,10.0,SW,3.5,-,N/A,,Clear,230,2013-07-18 03:15:00
10:35 PM,84.6,70.9,63,30.21,10.0,SW,3.5,-,N/A,,Clear,230,2013-07-18 03:35:00
10:55 PM,79.5,72.7,79,30.21,10.0,Calm,Calm,-,N/A,,Clear,0,2013-07-18 03:55:00
11:15 PM,78.4,72.7,82,30.21,10.0,SSW,3.5,-,N/A,,Clear,210,2013-07-18 04:15:00
11:35 PM,78.8,71.8,79,30.22,10.0,Calm,Calm,-,N/A,,Clear,0,2013-07-18 04:35:00
11:55 PM,77.0,72.9,87,30.21,10.0,SSW,3.5,-,N/A,,Clear,210,2013-07-18 04:55:00